Vorticity
6 8 8 9 7 -1 3 7 5 10 11 6 8 14 23 24 25 31 19 5 4 4 3 2 4 6 6 3 5 9 9 6 7 7 6 7 6 8 8 8 8 6 8 8 9 7 7 6 5 7 7 7 7 7 8 8 8 7 8 7 7 6 7 8 8 7 8 8 7 7 6 6 5 5 6 6 5 6 5 3 2 1 1 1 2 2 3 5 5 5 5 5 4 6 8 8 9
8 9 7 8 11 6 3 7 10 11 8 5 9 14 19 24 36 38 14 1 4 3 4 4 5 5 4 6 7 7 7 7 9 8 7 6 5 7 6 8 8 6 9 9 9 7 6 6 6 7 6 7 7 8 8 8 8 8 8 7 7 6 7 8 7 7 7 8 7 6 6 6 7 7 7 6 5 5 4 3 2 1 1 2 3 4 7 7 8 8 7 6 6 6 7 7 8
9 10 10 9 13 12 5 13 20 10 8 10 9 10 7 9 16 15 4 3 4 3 5 4 4 5 6 7 6 5 6 7 7 7 7 5 6 7 6 6 6 7 11 9 8 7 6 6 5 6 6 7 7 8 7 8 8 7 7 7 6 6 7 6 7 7 7 7 7 6 6 6 7 6 5 6 5 4 3 3 2 2 3 4 5 6 6 6 7 8 8 7 7 6 5 6 7
9 8 9 9 11 12 9 14 13 9 18 16 9 7 1 3 8 5 4 4 4 4 4 4 4 5 6 5 5 6 7 7 6 7 6 7 7 7 6 5 6 8 10 9 8 6 6 6 5 6 6 7 8 7 7 7 6 7 7 6 5 6 7 6 6 7 6 6 7 6 6 6 6 5 5 5 5 4 3 2 2 4 4 5 5 4 4 4 5 6 7 7 7 6 4 6 6
9 7 7 8 9 9 9 15 19 20 21 11 7 5 2 6 8 5 4 3 3 4 3 4 4 4 3 4 7 6 6 7 6 8 7 8 7 5 7 5 6 8 9 9 7 6 6 5 5 6 6 7 8 7 7 7 6 7 6 5 5 6 6 6 6 6 6 6 6 6 6 6 6 5 4 5 4 3 3 2 2 4 4 4 4 3 3 3 4 4 5 4 5 5 4 6 6
8 7 7 8 10 11 11 18 26 22 12 6 6 3 4 6 4 4 3 3 3 3 3 3 4 4 3 4 7 7 7 7 6 9 7 6 8 5 7 6 6 8 9 9 7 6 6 5 6 6 7 8 8 8 7 7 7 7 5 6 7 6 6 6 6 5 6 6 7 6 6 6 6 5 4 4 5 3 3 3 3 3 4 3 3 4 3 2 3 3 4 5 5 4 4 7 8
7 6 6 9 12 14 14 11 10 9 6 6 4 2 3 2 2 3 2 3 3 3 4 4 4 4 4 5 6 7 8 9 7 9 7 4 7 6 5 7 6 8 9 8 7 6 5 5 6 6 8 8 8 8 7 7 8 6 6 6 7 6 5 6 7 6 6 7 8 7 6 6 6 5 4 4 4 3 2 3 3 3 3 3 3 3 3 2 3 4 6 7 5 5 6 7 9
5 4 4 9 12 11 9 6 4 5 5 4 3 2 1 2 4 4 3 4 3 4 6 5 5 5 7 7 6 8 7 10 9 9 10 4 7 9 6 7 6 7 8 7 6 5 5 5 6 7 8 8 8 8 8 8 7 6 6 6 7 6 5 6 7 7 6 6 8 7 6 6 6 5 4 5 4 3 3 3 3 3 3 2 2 2 3 3 4 4 5 6 5 5 6 7 6
4 5 4 7 11 7 4 4 5 5 4 4 3 3 3 4 4 3 3 5 5 4 5 6 7 7 7 7 7 8 7 10 10 8 10 6 8 11 7 8 7 7 8 7 6 5 6 6 6 8 9 9 8 9 8 9 7 6 6 6 6 5 6 7 7 7 7 7 8 7 6 5 5 4 4 4 4 3 3 3 3 3 3 3 3 4 4 4 5 4 5 7 5 5 6 6 5
6 4 5 8 9 7 5 4 3 4 4 5 3 2 4 4 4 4 4 4 5 2 2 3 4 5 5 6 6 5 7 9 10 9 9 7 8 10 9 9 8 7 7 5 5 5 6 6 7 8 10 10 10 9 9 8 6 6 6 6 6 6 6 7 7 8 8 9 8 7 7 6 5 4 4 4 4 4 3 3 4 3 4 4 4 4 4 5 5 5 6 7 5 5 6 7 7
6 3 4 8 8 6 5 3 2 3 4 4 2 3 4 5 5 4 5 3 4 3 2 1 1 4 4 5 5 4 6 7 9 9 9 8 8 10 9 9 8 7 6 5 5 6 6 6 7 9 10 10 10 9 8 8 7 6 6 6 6 6 6 6 7 8 10 9 8 8 7 6 5 5 5 4 5 5 5 5 4 5 4 4 5 6 7 7 8 8 8 8 8 10 9 9 8
4 5 7 6 3 4 5 3 1 3 5 5 5 6 6 6 5 4 6 6 5 5 4 4 3 4 5 4 5 4 5 6 7 7 9 9 9 10 9 9 9 7 5 5 6 7 7 7 8 9 11 10 10 9 7 7 7 7 7 6 6 6 6 6 7 9 10 9 8 7 7 7 5 5 5 5 5 5 5 6 6 6 6 7 8 9 10 10 10 11 10 10 11 12 11 10 9
3 5 9 7 2 3 4 3 2 5 6 5 6 6 5 4 2 4 8 8 6 6 7 8 7 6 6 5 3 3 3 5 6 6 9 8 8 10 10 9 8 7 5 5 7 8 7 7 8 9 11 10 9 9 7 7 7 7 7 6 6 6 6 6 7 8 9 9 9 9 9 8 7 6 6 6 6 6 7 8 9 9 9 10 10 10 11 11 11 12 12 11 11 12 12 12 10
2 3 6 7 5 5 4 4 4 6 5 4 6 6 7 5 3 7 9 9 7 8 8 7 7 7 6 5 4 4 3 4 5 6 9 8 7 10 10 9 9 7 5 5 8 9 9 8 9 10 10 10 9 9 7 7 7 7 7 6 6 6 6 5 5 6 6 7 8 9 10 10 9 9 9 9 8 9 10 10 10 10 10 10 10 10 9 10 10 12 13 13 12 11 12 14 11
1 -0 4 5 4 4 3 5 5 4 5 7 7 4 5 4 5 8 6 6 9 9 6 6 7 6 7 8 8 8 3 2 4 5 8 8 7 10 11 10 8 6 5 6 8 9 10 9 9 10 10 10 9 9 8 7 7 7 8 7 7 7 7 5 4 4 4 5 6 6 8 9 9 9 10 10 10 11 10 9 10 10 10 10 9 9 8 9 9 10 11 11 12 10 11 15 14
6 1 4 6 3 4 3 6 6 3 4 6 5 2 4 4 4 4 1 3 8 8 5 6 8 7 5 6 10 12 7 3 4 4 6 6 7 9 11 10 8 6 6 6 8 10 10 10 9 9 9 9 10 10 9 8 8 7 7 7 7 7 7 6 6 6 6 7 8 8 9 9 9 10 10 10 10 9 9 8 9 8 8 8 8 8 9 9 8 8 8 8 10 10 10 11 12
9 5 5 6 3 3 4 4 4 3 5 7 6 3 5 5 3 2 3 4 6 7 6 5 5 6 5 2 7 12 9 5 3 4 4 5 6 7 10 10 7 6 6 6 8 10 11 10 9 9 8 8 9 10 9 8 8 8 7 7 7 8 9 9 10 10 11 11 11 11 10 10 10 9 9 9 9 8 8 8 8 8 7 8 7 7 7 6 6 7 7 7 7 8 8 8 8
7 6 4 4 3 3 3 3 4 4 4 9 5 -0 4 6 5 5 5 6 7 7 6 6 5 7 6 2 4 8 11 8 6 6 5 5 5 6 9 9 7 6 6 6 7 10 11 11 10 9 8 8 9 9 9 9 8 8 8 8 9 11 11 11 11 11 10 9 8 8 8 8 8 8 8 8 8 8 8 7 6 6 6 6 6 6 6 5 6 6 6 6 6 6 7 7 7
7 7 7 7 6 4 6 5 4 4 3 7 3 -2 4 6 6 6 6 7 8 9 8 8 7 6 6 3 2 7 12 10 7 6 6 6 5 6 8 8 6 6 6 6 6 9 10 11 10 9 8 8 8 8 9 9 9 9 9 11 12 12 11 10 9 8 7 7 7 7 7 7 7 7 7 7 6 6 5 5 4 4 4 5 5 6 5 5 5 5 5 5 5 5 5 5 6
5 5 7 10 7 3 8 9 4 6 4 4 3 2 5 4 4 6 8 8 7 9 9 8 8 7 7 6 4 5 10 11 8 7 6 7 6 7 8 8 6 6 6 6 6 8 9 10 10 9 9 8 8 8 7 8 8 9 10 10 10 9 9 8 7 7 7 7 7 7 7 7 7 6 5 5 4 4 4 4 3 3 3 4 5 5 4 4 4 3 3 3 3 4 5 5 5
2 0 0 4 5 1 7 10 6 7 7 5 4 4 6 3 3 5 9 9 6 7 6 6 8 9 10 9 6 2 6 13 10 5 5 7 7 7 10 10 7 6 6 6 6 7 8 8 8 9 9 8 8 8 7 8 7 8 8 8 8 7 7 7 7 7 6 6 6 6 6 5 5 5 5 4 4 4 4 5 5 4 4 4 5 5 5 6 5 6 5 5 4 6 7 7 6
2 1 0 1 4 4 5 6 5 3 3 7 6 4 6 4 2 4 7 7 5 6 3 4 8 10 10 9 10 4 3 10 8 4 6 7 6 7 10 11 8 7 6 6 6 6 7 6 6 7 7 8 8 8 8 8 7 7 7 7 6 6 6 6 6 6 5 5 5 4 4 4 4 4 5 4 4 4 5 5 5 6 5 6 6 5 7 7 7 8 8 9 9 8 9 8 7
2 2 4 3 4 5 5 3 4 3 1 5 5 4 6 4 2 3 6 5 4 6 4 4 7 9 9 9 10 6 4 8 8 5 5 4 4 5 9 10 7 7 7 6 6 6 5 4 5 5 5 7 7 8 8 7 8 7 7 6 6 6 5 5 5 5 5 4 4 4 4 4 4 4 4 4 5 5 6 7 7 8 8 8 7 7 8 8 8 9 9 9 10 9 9 9 8
3 2 3 4 4 3 4 3 4 7 6 5 4 4 5 4 6 7 6 3 3 6 5 5 8 10 13 11 8 11 13 9 7 6 6 5 3 5 8 9 8 7 7 6 6 6 4 3 3 4 4 5 6 6 7 7 7 7 7 6 5 5 4 5 5 4 4 4 4 4 4 4 4 5 6 6 7 9 10 10 9 10 10 11 9 9 10 10 9 8 7 7 7 7 7 7 7
3 3 2 4 4 3 4 2 1 5 8 8 7 6 4 7 12 11 6 4 5 5 4 6 10 10 13 12 8 14 18 11 8 9 11 8 3 5 8 9 8 7 7 6 6 6 5 3 3 4 4 5 6 5 5 5 6 6 6 5 5 4 4 4 4 5 5 5 5 5 4 5 7 9 9 9 9 9 9 9 9 9 9 9 8 9 9 7 6 6 5 5 5 5 6 6 6
3 3 3 3 3 4 4 4 3 4 6 7 7 5 4 8 13 9 4 6 7 4 3 8 11 9 11 14 10 11 14 10 6 7 10 8 4 5 8 9 8 6 8 7 6 6 5 4 3 3 4 4 5 5 5 5 5 6 5 5 5 4 4 4 4 5 5 5 5 5 6 8 10 10 9 8 7 7 6 6 6 5 5 4 5 8 8 5 4 4 4 4 5 6 6 6 6
2 3 4 4 3 4 4 7 9 6 5 5 2 2 3 8 11 6 3 5 5 4 6 9 9 8 10 13 12 10 13 13 9 4 6 8 6 5 7 9 8 6 8 8 6 6 6 5 4 3 4 5 5 5 5 5 5 6 6 5 4 4 4 4 5 6 6 6 6 7 9 9 8 7 6 6 6 5 5 5 4 4 4 4 4 6 7 6 5 6 6 6 6 6 6 6 6
4 2 3 4 4 4 4 7 10 7 6 6 3 3 4 8 12 9 7 5 3 6 8 8 6 5 8 12 12 9 10 16 14 5 3 7 6 4 6 7 8 6 6 8 7 6 7 6 5 5 4 5 5 4 4 5 5 6 6 5 4 4 4 5 6 7 7 8 9 10 9 6 5 5 6 7 8 7 6 5 5 5 5 5 5 5 6 7 8 9 9 7 7 7 7 8 8
6 4 1 3 4 5 4 5 8 6 5 5 3 6 7 6 11 12 9 6 5 9 9 6 3 4 7 9 12 9 7 12 14 6 4 8 7 4 5 5 7 8 5 7 8 7 7 6 7 6 4 5 5 5 5 5 5 6 6 5 4 4 5 6 6 7 8 8 8 8 6 4 4 5 6 8 9 9 8 6 6 6 6 6 5 5 7 10 10 9 8 8 8 8 10 11 12
4 5 3 1 2 5 5 4 6 5 5 5 -0 4 10 6 9 12 8 6 5 8 7 4 3 5 7 7 10 10 9 11 11 8 8 11 10 6 4 5 6 7 5 5 7 7 7 7 7 7 5 5 5 6 6 6 5 5 5 5 5 5 6 7 7 7 7 7 7 6 5 4 5 6 7 7 8 8 8 8 7 7 7 7 7 8 8 8 7 8 9 9 9 11 13 13 13
1 3 6 5 -1 1 4 4 6 5 5 9 -0 1 8 5 8 10 7 7 5 4 4 4 4 5 7 6 8 10 11 14 12 9 11 12 13 9 4 5 6 5 6 5 6 7 7 7 8 8 7 5 6 7 7 7 6 5 5 5 6 7 7 7 6 7 7 6 6 5 4 4 4 5 6 6 6 7 7 8 9 9 9 8 9 10 9 6 7 9 10 10 11 12 12 11 11
-0 0 7 12 7 2 5 5 7 5 5 10 5 -1 1 0 6 9 6 6 4 4 5 5 7 6 7 7 7 9 10 14 13 9 10 13 13 10 6 6 5 5 6 6 5 5 6 7 7 8 8 6 7 7 7 8 7 6 5 5 6 7 8 7 7 7 6 5 5 5 5 4 4 4 6 7 6 6 6 9 11 10 10 8 6 7 6 7 9 10 10 11 10 9 9 10 11
-0 1 5 12 14 9 7 5 5 4 5 9 8 2 -1 1 7 11 10 6 2 4 5 5 8 7 7 8 6 8 9 12 14 10 10 12 11 9 8 7 5 5 6 5 5 4 5 6 7 8 8 7 7 7 7 8 8 8 7 6 6 7 7 7 7 7 5 4 4 4 5 5 4 4 5 6 6 6 6 8 11 11 9 6 6 8 7 8 10 10 10 8 6 6 7 9 10
1 3 7 10 14 12 9 6 3 4 5 6 6 4 4 5 9 11 9 5 3 4 4 5 8 5 8 9 6 8 10 11 13 11 10 11 10 8 8 9 6 5 5 6 5 5 5 6 6 7 7 6 6 5 5 7 7 8 8 7 7 6 7 7 8 8 5 3 3 3 4 5 5 5 5 6 7 6 7 9 10 10 8 6 7 8 7 9 11 9 7 5 4 4 6 8 10
3 2 5 7 9 10 10 9 6 5 6 4 3 5 6 7 9 10 6 3 5 4 2 7 8 2 4 8 6 6 9 11 12 12 12 12 10 7 8 9 7 5 5 6 6 4 4 5 6 6 6 6 5 4 4 5 6 6 7 8 7 7 7 7 7 7 5 3 3 4 4 5 5 4 5 6 7 7 8 9 9 8 7 7 9 8 6 6 7 7 6 4 4 4 5 7 8
5 4 5 5 5 5 6 9 8 7 8 5 3 5 5 6 8 9 7 7 8 3 0 7 7 1 4 7 8 7 6 9 11 12 12 13 11 8 7 8 8 7 6 5 6 5 3 4 5 5 5 5 5 5 5 4 5 5 6 6 7 8 7 7 6 6 6 5 5 5 5 5 4 4 6 7 8 9 9 8 8 7 7 7 9 10 9 8 9 9 6 4 3 5 6 6 6
1 5 7 6 8 7 4 6 6 9 10 5 3 6 5 6 8 7 5 8 9 2 1 4 4 3 6 6 6 7 7 8 10 12 13 13 13 10 7 8 9 8 6 5 6 7 5 4 5 5 5 5 5 5 5 6 6 5 5 7 8 8 8 6 5 5 5 5 6 6 7 6 4 4 6 8 9 9 9 9 8 7 7 8 7 8 9 10 11 9 5 3 3 4 5 6 5
-3 0 4 5 7 9 5 4 5 8 10 4 1 7 7 5 8 8 4 8 9 2 1 3 3 4 6 6 6 7 9 8 8 11 14 15 14 11 8 9 9 9 8 6 6 7 8 6 6 6 5 4 5 5 5 6 6 5 6 7 8 7 7 7 6 6 6 6 6 6 7 7 5 5 6 8 9 9 8 8 8 7 7 8 7 7 7 7 8 7 5 4 4 4 4 5 5
1 -1 0 1 4 7 5 1 2 3 4 3 2 7 8 5 9 10 7 11 9 2 3 3 2 4 5 5 7 10 11 9 7 7 11 15 15 11 9 10 9 8 8 8 7 7 8 8 6 6 6 4 4 4 5 6 7 8 8 8 7 7 8 9 8 7 6 6 6 6 7 7 6 4 5 7 8 8 8 7 7 7 7 7 7 9 9 8 8 8 7 5 4 4 4 5 5
6 2 -0 -1 1 5 6 0 0 2 1 3 5 8 7 6 8 8 8 13 8 -0 1 2 0 1 -1 -2 -0 3 5 7 8 8 9 12 16 13 9 9 9 8 8 8 8 6 6 7 6 6 6 5 4 3 4 7 9 10 10 8 8 8 9 9 8 7 7 6 5 6 6 6 6 4 4 6 7 7 7 7 7 6 6 6 6 8 9 9 8 7 7 6 5 5 5 5 5
9 6 3 -0 -2 2 5 2 0 1 1 2 5 8 9 7 7 5 6 12 10 -0 -3 0 1 0 -1 -1 0 1 2 4 5 5 6 9 13 14 10 7 8 8 8 8 8 7 5 7 7 6 6 4 4 5 4 7 11 11 10 9 10 9 8 7 6 6 6 5 6 6 6 6 6 4 4 5 6 7 6 6 6 6 6 6 6 7 7 9 9 8 7 6 5 5 5 5 5
11 8 7 4 2 2 2 4 1 -1 1 2 2 8 11 9 7 5 6 11 11 4 1 4 3 2 4 5 4 6 5 4 6 5 6 8 10 13 13 10 8 8 9 8 8 9 6 6 7 6 5 5 4 5 5 7 11 10 8 7 7 7 5 3 3 4 4 5 6 6 6 6 7 6 5 5 5 6 7 7 6 7 7 6 6 6 6 7 8 8 8 7 6 5 5 5 5
15 10 9 7 7 5 3 4 3 0 2 3 2 6 9 10 9 6 6 10 10 5 4 6 2 4 9 6 4 7 5 2 5 8 10 11 11 13 14 11 8 7 9 8 8 9 8 5 5 5 5 5 5 5 5 6 9 9 6 4 3 3 2 1 3 5 6 6 6 6 6 6 7 7 6 6 6 7 7 7 7 7 7 7 6 5 5 6 6 8 9 9 7 6 5 5 6
15 13 11 11 9 8 6 4 3 2 3 4 5 5 5 8 10 8 6 8 8 5 4 3 3 8 9 5 5 8 6 1 2 5 7 9 11 12 14 13 9 6 6 8 7 8 10 7 4 4 5 5 6 6 5 5 7 7 4 4 3 2 3 5 6 8 8 6 5 7 8 7 8 8 8 7 7 8 8 8 8 8 8 8 7 6 6 5 6 7 8 10 9 8 6 5 6
12 12 12 14 12 9 8 7 5 4 4 5 7 7 7 9 9 9 9 6 5 5 3 1 5 11 9 5 6 7 6 4 1 2 2 5 7 9 12 13 13 10 7 7 7 7 9 9 7 4 4 5 6 7 6 5 5 4 3 4 3 3 7 9 8 8 8 6 6 7 9 9 9 8 8 8 8 9 9 8 8 8 9 9 8 8 7 6 6 6 8 10 10 9 8 6 6
10 8 10 16 14 9 8 8 6 5 5 6 6 7 9 11 9 9 10 6 5 7 3 2 7 11 8 5 6 6 6 4 4 4 1 1 4 5 8 11 14 14 10 6 7 7 7 9 9 6 5 5 6 8 7 5 4 4 4 5 5 7 10 9 6 6 7 7 5 6 9 10 9 9 9 9 9 9 10 10 9 8 8 9 9 10 9 8 7 6 7 8 10 11 9 8 7
8 4 7 14 14 10 9 7 6 6 6 4 5 5 6 15 15 9 8 9 8 7 4 3 7 8 7 5 4 5 6 4 2 3 2 1 3 4 6 8 12 14 13 9 7 7 7 7 9 9 7 6 7 9 8 6 4 4 5 7 9 11 9 7 6 4 6 7 4 5 9 10 10 11 10 9 9 9 10 11 11 10 9 9 9 9 10 10 10 9 8 7 8 10 11 10 9
8 3 3 9 12 12 10 8 6 6 5 4 6 3 3 19 25 9 5 12 10 6 4 2 4 7 7 7 5 6 8 6 1 1 2 3 5 7 7 8 11 14 15 14 10 9 8 6 7 9 10 8 7 9 8 6 4 3 4 7 11 11 7 5 5 4 5 6 4 6 9 10 9 8 7 6 7 9 11 13 14 15 14 12 11 10 11 11 11 11 10 9 8 7 10 11 10
6 3 2 6 9 10 11 11 7 3 2 4 7 3 -0 14 26 12 4 13 13 8 6 3 3 5 6 6 3 2 4 5 5 4 3 4 5 5 7 8 10 13 15 16 14 11 9 8 6 7 10 9 8 8 8 7 5 3 3 6 10 10 7 5 4 4 4 5 6 7 8 8 5 4 3 3 5 8 11 13 14 16 17 17 16 15 15 15 14 15 14 13 12 9 8 8 10
7 3 2 5 7 8 10 10 8 5 1 3 6 2 -5 1 16 16 7 11 16 13 10 6 4 4 7 8 2 -2 -1 -1 4 7 5 5 4 3 6 8 8 10 12 16 16 14 12 10 8 7 8 10 9 8 8 7 5 3 3 6 10 8 6 6 5 4 3 5 7 7 8 6 3 4 5 4 4 4 7 9 10 10 11 11 11 11 10 11 11 12 14 15 16 16 12 9 7
9 6 2 5 8 9 10 8 10 9 2 3 4 -2 -6 0 15 18 8 8 13 13 13 10 6 6 7 6 1 -3 -2 -2 2 6 7 7 3 0 3 7 8 9 11 13 15 16 14 11 10 8 7 9 9 8 9 8 5 3 3 6 9 8 5 5 6 5 4 6 7 8 9 6 4 7 6 3 2 1 1 3 4 4 5 4 4 3 3 3 4 4 6 8 12 15 17 15 11
6 6 3 4 7 8 10 9 11 13 8 6 3 -5 -8 -2 10 14 9 10 12 11 15 13 8 8 7 5 4 0 -1 1 3 5 7 7 3 -2 -1 4 6 8 10 13 15 16 15 12 11 11 8 7 8 8 8 9 6 3 4 6 8 8 6 5 6 5 6 7 7 9 9 7 7 7 3 1 1 1 2 1 -1 -1 -1 -1 -1 -1 -1 -1 0 1 1 1 3 6 11 17 17
3 6 7 3 2 6 11 9 9 13 12 9 6 1 -6 -8 1 10 9 9 12 12 15 15 9 7 7 8 7 3 1 3 4 7 8 8 6 2 1 2 5 7 9 11 13 15 15 12 10 11 10 7 7 7 8 8 6 4 4 6 7 7 6 6 6 6 7 7 7 9 10 7 7 4 0 2 2 2 3 2 2 1 -2 -3 -3 -3 -3 -2 -2 -0 0 -0 -0 0 2 7 14
4 7 8 4 1 4 9 9 7 11 11 9 9 7 2 -3 2 12 11 7 9 14 16 14 9 7 8 10 8 6 8 9 7 6 8 8 8 5 2 1 3 6 8 8 8 11 14 13 10 9 10 8 7 7 8 7 6 5 4 5 6 7 6 6 7 8 9 7 6 8 9 7 5 1 0 3 2 2 3 2 3 2 1 0 -1 -2 -2 -1 -1 -1 -1 -0 -0 0 0 1 4
6 6 7 5 4 4 7 8 7 7 7 8 11 10 5 2 3 11 15 8 6 13 17 13 7 7 9 10 10 9 9 10 8 6 7 6 6 4 2 2 4 4 5 6 8 8 11 13 12 10 10 9 7 6 7 7 6 4 4 6 7 6 6 7 8 9 9 6 5 7 8 6 4 2 2 2 2 2 3 3 3 2 2 2 1 1 1 1 1 1 1 2 1 1 1 1 0
6 7 7 6 5 4 7 11 7 7 7 5 9 12 7 2 -0 6 15 13 6 10 17 14 7 9 11 9 10 9 7 9 9 8 8 7 5 5 4 3 3 3 4 6 8 9 11 13 13 11 10 10 9 7 6 7 7 5 5 6 7 6 6 7 8 8 8 5 5 7 7 5 3 2 2 1 2 2 3 3 3 2 2 2 2 2 3 3 3 3 3 4 4 4 4 4 2
6 4 5 6 6 2 4 10 7 6 7 5 9 13 9 4 -0 1 9 14 10 9 14 14 8 8 10 9 9 8 6 7 9 7 8 8 5 4 5 4 0 -1 1 3 6 8 10 13 14 13 11 10 11 10 8 7 7 7 6 6 7 6 6 7 8 8 7 5 5 6 6 4 3 2 1 0 1 2 3 2 1 2 2 3 3 4 4 4 4 5 5 5 5 6 7 6 4
7 5 3 4 5 3 2 7 6 4 5 4 8 11 10 10 6 1 5 12 13 10 11 13 12 9 6 5 8 9 5 4 5 6 6 8 9 6 4 3 -0 -1 -1 0 4 7 7 10 13 14 13 11 11 11 9 8 7 7 7 8 8 6 5 7 8 7 6 4 4 5 5 4 3 1 1 1 1 2 2 1 1 2 3 4 5 6 7 5 5 6 7 8 7 7 9 8 5
Height
5890 5890 5890 5890 5890 5890 5890 5891 5891 5892 5892 5893 5894 5894 5894 5893 5893 5895 5897 5899 5900 5901 5902 5903 5903 5904 5904 5904 5903 5903 5903 5903 5903 5903 5904 5904 5904 5905 5905 5905 5905 5905 5905 5906 5906 5906 5906 5907 5908 5908 5908 5908 5908 5908 5908 5909 5909 5910 5910 5910 5910 5911 5911 5912 5913 5913 5913 5913 5914 5914 5915 5914 5914 5915 5917 5918 5919 5920 5920 5920 5920 5921 5921 5922 5923 5923 5924 5924 5924 5924 5924 5924 5923 5923 5923 5923 5922
5890 5890 5890 5890 5890 5890 5890 5891 5892 5892 5893 5894 5894 5895 5894 5894 5893 5895 5898 5900 5901 5902 5903 5903 5904 5904 5904 5904 5904 5904 5903 5904 5904 5904 5904 5904 5904 5905 5905 5905 5905 5906 5906 5906 5907 5907 5907 5908 5908 5908 5909 5908 5908 5909 5909 5910 5910 5910 5911 5911 5911 5911 5912 5913 5913 5914 5914 5915 5915 5915 5915 5915 5916 5917 5919 5920 5920 5921 5921 5922 5922 5922 5922 5923 5923 5924 5925 5925 5925 5925 5925 5925 5924 5924 5924 5923 5923
5891 5891 5890 5890 5891 5891 5891 5891 5891 5893 5894 5895 5895 5895 5895 5895 5896 5897 5899 5900 5901 5902 5903 5903 5904 5905 5905 5904 5904 5904 5904 5905 5905 5905 5904 5905 5904 5904 5905 5906 5906 5906 5907 5907 5907 5908 5908 5908 5909 5909 5909 5909 5909 5909 5910 5911 5911 5911 5912 5912 5912 5912 5913 5913 5914 5915 5916 5916 5915 5915 5915 5916 5917 5919 5920 5921 5921 5922 5922 5923 5923 5923 5923 5924 5924 5925 5926 5926 5926 5926 5925 5925 5925 5924 5924 5923 5923
5892 5892 5891 5891 5891 5891 5891 5891 5892 5893 5894 5895 5895 5896 5897 5897 5898 5899 5900 5901 5902 5902 5903 5904 5904 5905 5905 5905 5905 5905 5905 5905 5905 5905 5905 5905 5905 5904 5905 5906 5906 5907 5907 5908 5908 5908 5908 5909 5909 5909 5909 5910 5910 5910 5911 5912 5912 5912 5912 5913 5913 5913 5914 5914 5915 5916 5917 5917 5917 5916 5917 5918 5919 5920 5921 5921 5922 5923 5923 5924 5924 5924 5924 5925 5925 5926 5926 5927 5927 5926 5926 5925 5925 5925 5924 5923 5923
5892 5892 5891 5891 5892 5892 5892 5892 5893 5894 5895 5895 5896 5897 5898 5898 5899 5900 5901 5902 5903 5903 5904 5904 5905 5906 5905 5905 5906 5906 5906 5906 5906 5906 5906 5906 5905 5905 5905 5906 5906 5907 5908 5908 5908 5909 5909 5910 5910 5910 5910 5911 5911 5911 5912 5913 5913 5913 5914 5914 5914 5914 5915 5915 5916 5917 5918 5918 5918 5918 5919 5920 5921 5921 5922 5922 5923 5924 5924 5924 5925 5925 5925 5925 5926 5927 5927 5927 5927 5926 5926 5926 5925 5926 5925 5924 5924
5893 5893 5892 5892 5893 5893 5893 5893 5894 5895 5895 5896 5897 5898 5898 5899 5900 5901 5902 5903 5904 5904 5904 5905 5905 5906 5906 5906 5906 5906 5906 5906 5907 5907 5907 5906 5906 5906 5906 5906 5907 5908 5908 5909 5909 5910 5910 5911 5911 5911 5912 5912 5912 5912 5913 5914 5914 5915 5915 5915 5915 5915 5916 5916 5917 5918 5919 5919 5919 5920 5921 5922 5922 5922 5923 5924 5925 5925 5925 5925 5925 5926 5926 5926 5927 5927 5928 5928 5927 5927 5927 5927 5927 5927 5927 5926 5927
5893 5893 5893 5893 5894 5894 5894 5895 5895 5896 5897 5897 5898 5899 5899 5900 5901 5901 5902 5903 5904 5905 5905 5906 5906 5906 5907 5906 5906 5906 5906 5907 5907 5907 5908 5907 5906 5907 5907 5907 5907 5908 5909 5910 5910 5911 5911 5912 5912 5912 5913 5913 5913 5913 5914 5915 5915 5916 5916 5916 5916 5917 5917 5918 5919 5919 5920 5920 5921 5921 5922 5923 5923 5924 5924 5926 5926 5926 5926 5926 5926 5927 5927 5927 5928 5928 5928 5928 5927 5927 5928 5929 5929 5929 5929 5929 5930
5894 5894 5893 5894 5895 5895 5895 5896 5897 5897 5898 5899 5899 5900 5900 5901 5901 5902 5903 5903 5904 5905 5906 5906 5907 5907 5907 5907 5907 5907 5907 5907 5908 5908 5908 5908 5907 5907 5908 5907 5908 5909 5910 5911 5911 5912 5912 5913 5913 5913 5913 5914 5914 5914 5915 5915 5916 5916 5917 5917 5918 5918 5918 5919 5920 5920 5921 5921 5922 5922 5923 5924 5925 5925 5925 5926 5926 5926 5926 5926 5927 5927 5927 5928 5928 5928 5928 5928 5928 5927 5928 5929 5930 5929 5929 5930 5930
5894 5894 5894 5895 5896 5896 5896 5897 5898 5899 5899 5900 5900 5901 5901 5902 5902 5903 5903 5904 5904 5905 5906 5907 5907 5908 5908 5907 5907 5907 5907 5908 5908 5908 5909 5909 5908 5908 5909 5908 5908 5909 5911 5912 5912 5913 5913 5914 5914 5914 5914 5915 5915 5915 5916 5917 5917 5918 5918 5918 5919 5919 5920 5920 5921 5921 5922 5922 5923 5923 5924 5925 5925 5925 5925 5925 5926 5926 5927 5927 5928 5928 5928 5929 5929 5929 5929 5929 5928 5927 5927 5928 5929 5929 5929 5929 5929
5895 5894 5894 5895 5896 5897 5897 5898 5899 5899 5900 5901 5901 5902 5902 5902 5903 5903 5904 5904 5905 5905 5906 5907 5907 5908 5908 5908 5908 5908 5908 5908 5908 5908 5909 5910 5909 5909 5909 5909 5910 5910 5911 5912 5913 5913 5914 5914 5915 5915 5915 5916 5916 5917 5917 5918 5918 5919 5919 5919 5920 5920 5921 5921 5922 5922 5923 5923 5924 5924 5925 5925 5926 5926 5926 5926 5927 5927 5928 5928 5929 5929 5929 5929 5929 5929 5929 5929 5929 5928 5927 5928 5929 5929 5929 5929 5930
5895 5894 5895 5896 5897 5897 5898 5899 5900 5900 5901 5901 5902 5902 5902 5903 5903 5904 5904 5905 5905 5906 5906 5907 5907 5908 5908 5909 5909 5908 5908 5909 5908 5909 5910 5910 5910 5910 5910 5910 5911 5912 5912 5913 5914 5914 5914 5914 5915 5916 5916 5917 5917 5918 5919 5919 5920 5920 5920 5921 5921 5921 5922 5923 5923 5923 5924 5924 5924 5925 5926 5926 5926 5927 5928 5928 5928 5929 5929 5929 5930 5930 5930 5930 5930 5930 5930 5930 5929 5929 5928 5929 5930 5930 5931 5930 5931
5895 5895 5895 5896 5897 5898 5899 5899 5900 5901 5901 5902 5902 5902 5903 5904 5904 5905 5905 5905 5906 5906 5907 5907 5908 5908 5909 5909 5909 5909 5908 5909 5909 5909 5910 5910 5911 5911 5911 5911 5911 5913 5913 5914 5914 5915 5915 5915 5916 5916 5917 5918 5919 5919 5920 5920 5921 5921 5922 5922 5922 5923 5923 5924 5924 5924 5925 5925 5925 5926 5927 5927 5928 5928 5929 5930 5930 5930 5930 5930 5931 5931 5930 5930 5930 5930 5930 5930 5930 5930 5929 5929 5929 5931 5932 5932 5932
5895 5896 5896 5897 5897 5898 5899 5899 5900 5901 5901 5902 5902 5903 5903 5904 5905 5905 5905 5906 5906 5907 5907 5908 5908 5909 5909 5909 5909 5909 5909 5909 5909 5910 5911 5911 5911 5911 5911 5912 5912 5913 5914 5915 5915 5915 5916 5916 5916 5917 5918 5919 5920 5921 5921 5922 5922 5922 5923 5923 5924 5924 5924 5925 5925 5925 5926 5926 5926 5927 5928 5929 5929 5930 5930 5931 5931 5931 5932 5932 5932 5932 5931 5931 5931 5931 5931 5931 5931 5931 5931 5930 5930 5930 5932 5933 5933
5895 5896 5897 5897 5898 5898 5899 5900 5900 5901 5901 5902 5903 5903 5904 5905 5905 5906 5906 5906 5907 5907 5908 5908 5909 5909 5909 5909 5909 5909 5909 5909 5909 5910 5911 5912 5912 5912 5912 5912 5913 5913 5915 5915 5916 5916 5917 5917 5917 5918 5919 5920 5921 5922 5923 5923 5923 5924 5924 5925 5925 5925 5926 5926 5927 5927 5927 5927 5928 5929 5929 5930 5931 5931 5931 5932 5932 5932 5933 5933 5933 5932 5932 5932 5932 5932 5932 5932 5932 5933 5932 5932 5931 5931 5931 5932 5933
5895 5896 5897 5897 5898 5898 5899 5900 5900 5901 5901 5902 5903 5904 5904 5905 5906 5906 5906 5907 5907 5908 5908 5909 5909 5909 5910 5910 5910 5910 5909 5909 5909 5910 5911 5912 5913 5913 5913 5913 5914 5914 5915 5916 5917 5917 5918 5918 5918 5919 5919 5920 5922 5923 5924 5924 5925 5925 5926 5926 5926 5927 5927 5928 5928 5928 5928 5929 5930 5930 5931 5931 5932 5932 5933 5933 5933 5933 5933 5933 5934 5934 5934 5934 5933 5933 5933 5933 5933 5934 5933 5933 5933 5932 5931 5931 5932
5895 5896 5896 5897 5898 5898 5899 5899 5900 5900 5901 5902 5903 5903 5904 5904 5905 5905 5906 5907 5907 5908 5908 5908 5909 5909 5909 5910 5911 5911 5910 5909 5909 5910 5911 5912 5913 5914 5914 5914 5914 5915 5916 5917 5918 5918 5919 5919 5919 5920 5920 5921 5923 5924 5924 5925 5925 5926 5927 5927 5928 5928 5929 5929 5929 5930 5930 5931 5931 5932 5932 5933 5933 5934 5934 5934 5934 5934 5935 5935 5935 5935 5935 5935 5935 5935 5935 5935 5935 5934 5934 5934 5934 5934 5932 5932 5932
5894 5895 5896 5897 5897 5898 5899 5899 5900 5900 5901 5901 5902 5903 5903 5903 5904 5904 5905 5906 5907 5908 5908 5908 5908 5909 5909 5909 5911 5911 5911 5910 5909 5909 5911 5912 5914 5914 5914 5915 5915 5915 5916 5917 5918 5919 5920 5921 5921 5920 5921 5922 5924 5925 5925 5926 5926 5927 5928 5928 5929 5929 5930 5930 5931 5931 5932 5932 5933 5933 5934 5934 5935 5935 5935 5935 5935 5936 5936 5936 5936 5936 5936 5936 5936 5936 5936 5936 5936 5935 5935 5934 5934 5934 5934 5933 5933
5894 5895 5896 5896 5897 5898 5898 5899 5900 5900 5900 5901 5902 5902 5903 5903 5904 5904 5905 5906 5906 5907 5908 5908 5908 5908 5909 5909 5910 5911 5911 5910 5909 5909 5910 5912 5914 5914 5914 5915 5916 5916 5917 5918 5919 5921 5921 5922 5922 5922 5922 5923 5924 5925 5926 5927 5927 5928 5929 5930 5930 5931 5931 5931 5932 5932 5933 5933 5934 5935 5935 5935 5936 5936 5936 5936 5937 5937 5937 5937 5937 5937 5937 5938 5938 5938 5937 5937 5937 5936 5935 5935 5935 5935 5935 5935 5936
5894 5895 5895 5896 5897 5898 5898 5899 5899 5900 5900 5901 5902 5902 5903 5903 5904 5904 5905 5905 5906 5907 5907 5908 5907 5908 5909 5909 5910 5911 5912 5911 5910 5909 5910 5912 5914 5915 5915 5916 5916 5917 5918 5919 5920 5921 5923 5924 5924 5923 5924 5924 5925 5926 5927 5927 5928 5929 5930 5931 5931 5932 5932 5933 5933 5934 5934 5935 5935 5936 5937 5937 5937 5937 5937 5938 5938 5939 5939 5939 5938 5939 5939 5939 5939 5939 5938 5938 5938 5937 5937 5937 5936 5936 5937 5937 5938
5894 5894 5895 5896 5897 5898 5898 5899 5899 5900 5900 5901 5901 5902 5902 5902 5903 5904 5905 5905 5906 5907 5907 5907 5908 5908 5909 5909 5909 5910 5912 5912 5911 5910 5911 5913 5915 5915 5915 5916 5916 5917 5918 5920 5921 5922 5924 5925 5925 5925 5925 5926 5926 5927 5927 5928 5929 5930 5931 5932 5932 5933 5934 5934 5935 5935 5936 5936 5937 5937 5938 5938 5938 5939 5939 5939 5939 5940 5940 5940 5940 5940 5940 5940 5940 5940 5939 5939 5939 5938 5938 5938 5938 5938 5938 5938 5939
5893 5894 5894 5895 5896 5897 5898 5899 5899 5900 5900 5900 5901 5902 5902 5902 5903 5904 5905 5905 5906 5907 5907 5908 5908 5908 5909 5909 5909 5910 5911 5912 5911 5910 5911 5914 5915 5916 5916 5917 5917 5918 5919 5920 5922 5923 5924 5926 5926 5927 5927 5927 5928 5928 5929 5929 5930 5930 5931 5933 5933 5934 5935 5935 5936 5936 5937 5937 5938 5938 5939 5939 5939 5940 5940 5940 5940 5941 5941 5942 5942 5942 5941 5941 5941 5941 5940 5940 5940 5939 5939 5939 5939 5939 5939 5939 5940
5893 5893 5894 5895 5896 5897 5898 5898 5899 5900 5900 5900 5901 5902 5902 5902 5903 5903 5904 5905 5906 5907 5907 5908 5908 5909 5909 5910 5910 5910 5910 5911 5911 5910 5912 5914 5915 5916 5916 5917 5918 5918 5920 5921 5922 5924 5925 5927 5928 5928 5929 5929 5930 5930 5931 5931 5932 5932 5933 5934 5935 5935 5936 5936 5937 5937 5938 5938 5939 5939 5940 5940 5940 5941 5941 5941 5942 5942 5942 5943 5943 5942 5942 5942 5942 5942 5941 5941 5941 5941 5941 5940 5940 5940 5940 5940 5940
5891 5892 5893 5894 5895 5897 5898 5898 5899 5900 5900 5901 5901 5902 5903 5903 5903 5903 5904 5905 5906 5907 5907 5908 5908 5908 5909 5909 5910 5910 5909 5911 5911 5910 5911 5913 5914 5916 5916 5917 5918 5919 5920 5922 5923 5925 5926 5927 5928 5929 5930 5931 5931 5932 5933 5933 5934 5934 5935 5936 5936 5937 5937 5937 5938 5938 5939 5939 5940 5940 5941 5941 5941 5942 5942 5943 5943 5943 5944 5943 5943 5943 5943 5943 5943 5943 5942 5942 5942 5941 5941 5941 5941 5941 5941 5941 5941
5890 5891 5892 5892 5894 5896 5897 5898 5898 5899 5900 5901 5901 5902 5903 5904 5904 5904 5904 5905 5906 5907 5907 5908 5908 5908 5909 5909 5910 5910 5909 5910 5911 5911 5912 5913 5914 5915 5916 5918 5919 5919 5920 5922 5923 5925 5926 5928 5929 5930 5931 5932 5933 5933 5934 5935 5935 5936 5937 5937 5938 5938 5939 5939 5940 5940 5940 5941 5941 5941 5942 5942 5943 5943 5944 5944 5944 5944 5944 5944 5943 5943 5943 5943 5944 5943 5943 5942 5942 5942 5942 5942 5942 5942 5942 5941 5941
5888 5889 5890 5891 5893 5894 5896 5897 5898 5899 5900 5900 5901 5902 5903 5904 5904 5904 5904 5905 5906 5907 5907 5907 5908 5908 5909 5908 5909 5910 5910 5910 5912 5912 5913 5914 5915 5916 5917 5918 5919 5920 5921 5922 5924 5925 5927 5928 5929 5931 5932 5933 5934 5934 5935 5936 5937 5937 5938 5938 5939 5939 5940 5941 5941 5942 5942 5942 5943 5943 5943 5944 5944 5944 5945 5945 5945 5945 5945 5945 5944 5944 5944 5944 5944 5944 5944 5943 5943 5943 5943 5942 5942 5942 5942 5942 5942
5885 5886 5888 5890 5891 5893 5894 5896 5898 5898 5899 5899 5900 5902 5903 5904 5904 5904 5904 5905 5905 5906 5907 5907 5907 5908 5908 5908 5908 5909 5910 5910 5911 5912 5913 5914 5915 5916 5918 5919 5920 5921 5922 5923 5924 5925 5927 5929 5930 5931 5932 5933 5934 5935 5936 5937 5938 5939 5939 5939 5940 5941 5941 5942 5943 5943 5944 5944 5944 5944 5945 5945 5945 5945 5945 5946 5946 5946 5946 5945 5945 5945 5945 5945 5945 5945 5945 5944 5944 5944 5943 5943 5943 5943 5943 5943 5943
5881 5883 5886 5888 5890 5892 5894 5896 5897 5898 5898 5899 5900 5902 5902 5904 5905 5904 5904 5904 5904 5905 5906 5906 5907 5908 5908 5908 5908 5909 5910 5910 5911 5912 5913 5914 5915 5916 5918 5919 5920 5921 5923 5924 5925 5926 5927 5929 5930 5931 5933 5934 5935 5936 5937 5938 5939 5940 5940 5940 5941 5942 5942 5943 5944 5944 5945 5945 5945 5945 5946 5946 5946 5946 5946 5946 5946 5946 5946 5946 5946 5946 5946 5946 5946 5945 5945 5945 5945 5944 5944 5944 5944 5944 5944 5944 5944
5877 5880 5884 5887 5889 5891 5893 5895 5896 5897 5898 5899 5900 5901 5902 5903 5905 5905 5904 5904 5904 5904 5905 5906 5906 5907 5908 5908 5908 5908 5909 5910 5911 5912 5912 5913 5914 5915 5917 5919 5920 5922 5923 5924 5925 5926 5928 5929 5930 5932 5933 5934 5935 5936 5937 5938 5940 5940 5941 5941 5942 5942 5943 5944 5944 5945 5945 5946 5946 5946 5946 5947 5947 5947 5947 5947 5947 5947 5947 5947 5947 5947 5947 5947 5946 5946 5946 5946 5946 5945 5945 5945 5945 5945 5945 5945 5945
5874 5878 5882 5885 5888 5890 5892 5894 5895 5896 5897 5899 5900 5901 5902 5903 5904 5904 5904 5904 5904 5904 5905 5905 5906 5907 5907 5908 5908 5908 5908 5910 5911 5911 5912 5913 5914 5915 5916 5918 5919 5921 5923 5924 5926 5927 5928 5930 5931 5932 5933 5934 5936 5937 5938 5939 5940 5941 5942 5942 5943 5943 5944 5944 5945 5946 5946 5946 5947 5947 5947 5947 5948 5948 5948 5948 5948 5948 5947 5947 5947 5948 5948 5948 5947 5947 5947 5947 5947 5947 5946 5946 5946 5946 5946 5945 5945
5872 5876 5880 5883 5886 5889 5890 5892 5893 5894 5896 5898 5899 5901 5901 5902 5903 5904 5904 5904 5903 5904 5904 5905 5905 5906 5907 5908 5908 5907 5908 5909 5911 5911 5912 5913 5914 5915 5916 5917 5919 5921 5923 5925 5926 5928 5929 5930 5931 5933 5934 5935 5936 5937 5938 5939 5940 5942 5942 5943 5943 5944 5944 5945 5946 5946 5947 5947 5947 5948 5948 5948 5949 5948 5948 5948 5948 5948 5948 5948 5948 5948 5949 5949 5948 5948 5949 5948 5948 5948 5948 5947 5947 5947 5947 5947 5946
5871 5873 5877 5880 5885 5887 5888 5890 5892 5893 5895 5896 5898 5899 5900 5901 5902 5903 5904 5903 5903 5903 5904 5905 5905 5906 5907 5907 5908 5907 5908 5909 5910 5911 5912 5913 5914 5916 5917 5918 5919 5921 5923 5924 5926 5928 5929 5931 5932 5933 5934 5935 5936 5937 5938 5939 5941 5942 5943 5944 5944 5945 5945 5946 5946 5947 5948 5948 5948 5949 5949 5949 5949 5949 5949 5949 5949 5949 5949 5949 5949 5949 5949 5949 5949 5950 5950 5949 5949 5949 5949 5949 5949 5948 5948 5948 5948
5869 5870 5874 5879 5883 5886 5886 5889 5890 5891 5893 5895 5896 5897 5898 5900 5902 5902 5903 5903 5903 5903 5904 5904 5905 5905 5906 5907 5907 5908 5908 5909 5910 5911 5912 5913 5914 5916 5917 5918 5920 5921 5922 5924 5926 5928 5929 5931 5932 5934 5935 5936 5937 5938 5939 5940 5941 5942 5944 5944 5945 5945 5946 5946 5947 5948 5948 5949 5949 5950 5950 5950 5950 5950 5950 5950 5950 5950 5950 5950 5950 5950 5950 5950 5950 5950 5951 5951 5950 5950 5950 5950 5950 5950 5949 5949 5949
5866 5868 5873 5877 5881 5884 5884 5887 5889 5889 5891 5893 5894 5895 5897 5899 5900 5902 5902 5903 5902 5902 5903 5904 5905 5905 5906 5906 5907 5908 5908 5908 5909 5910 5911 5913 5914 5915 5917 5918 5919 5920 5922 5924 5926 5928 5929 5931 5933 5934 5935 5936 5937 5938 5939 5941 5942 5943 5944 5945 5946 5946 5947 5947 5948 5948 5949 5949 5950 5950 5951 5951 5951 5951 5951 5951 5951 5951 5951 5951 5951 5951 5951 5952 5951 5951 5951 5951 5951 5951 5951 5951 5951 5951 5951 5950 5950
5866 5868 5872 5875 5879 5881 5883 5885 5886 5887 5889 5891 5892 5893 5895 5897 5899 5900 5901 5902 5902 5902 5902 5903 5904 5905 5906 5906 5907 5907 5908 5908 5909 5909 5910 5912 5913 5914 5916 5918 5919 5920 5922 5924 5925 5927 5929 5931 5933 5934 5936 5937 5938 5939 5940 5941 5942 5943 5944 5945 5946 5947 5947 5948 5948 5949 5949 5950 5950 5951 5951 5952 5952 5952 5952 5952 5952 5952 5952 5952 5952 5953 5953 5953 5952 5952 5952 5952 5952 5952 5952 5952 5952 5952 5952 5952 5952
5867 5868 5871 5874 5877 5879 5881 5883 5884 5886 5887 5888 5890 5891 5893 5895 5897 5898 5900 5901 5901 5901 5901 5902 5903 5904 5906 5906 5906 5907 5907 5908 5908 5909 5909 5911 5912 5914 5915 5917 5919 5920 5922 5924 5925 5927 5929 5931 5933 5935 5936 5938 5939 5940 5941 5942 5943 5944 5945 5945 5946 5947 5947 5948 5949 5949 5950 5950 5951 5952 5952 5952 5953 5953 5953 5953 5953 5953 5953 5953 5953 5953 5954 5953 5953 5953 5953 5954 5953 5953 5953 5953 5953 5954 5954 5954 5953
5867 5868 5869 5872 5874 5877 5879 5880 5882 5884 5884 5886 5888 5890 5890 5892 5894 5896 5898 5900 5900 5900 5900 5901 5902 5904 5905 5906 5906 5907 5907 5907 5908 5908 5909 5910 5912 5913 5915 5916 5918 5920 5922 5924 5925 5927 5929 5931 5933 5935 5937 5938 5939 5941 5942 5943 5943 5944 5945 5946 5946 5947 5948 5948 5949 5950 5950 5951 5952 5952 5952 5953 5953 5954 5954 5953 5953 5953 5954 5954 5954 5954 5954 5954 5954 5954 5955 5955 5955 5955 5955 5955 5955 5955 5955 5955 5955
5864 5865 5866 5868 5871 5874 5876 5877 5879 5880 5882 5884 5886 5888 5888 5890 5892 5894 5896 5898 5899 5899 5900 5901 5902 5903 5904 5905 5906 5906 5906 5907 5907 5908 5909 5910 5911 5913 5914 5916 5918 5919 5921 5923 5925 5927 5929 5931 5933 5935 5937 5939 5940 5941 5942 5943 5943 5944 5944 5945 5946 5947 5948 5949 5949 5950 5951 5951 5952 5953 5953 5953 5954 5955 5954 5954 5954 5954 5954 5954 5954 5954 5955 5955 5955 5955 5955 5955 5956 5956 5956 5956 5956 5956 5956 5956 5956
5861 5862 5863 5866 5868 5871 5873 5874 5876 5878 5879 5881 5884 5886 5887 5888 5890 5891 5893 5896 5898 5899 5899 5899 5900 5901 5903 5904 5905 5906 5906 5906 5907 5907 5908 5909 5911 5913 5914 5916 5918 5919 5921 5923 5925 5927 5929 5931 5933 5935 5937 5938 5940 5941 5941 5942 5943 5944 5944 5945 5946 5947 5948 5949 5950 5951 5951 5952 5953 5953 5954 5954 5955 5955 5955 5955 5955 5955 5955 5955 5955 5955 5956 5956 5956 5956 5956 5957 5957 5957 5958 5957 5957 5957 5957 5958 5958
5856 5857 5860 5863 5866 5869 5870 5871 5874 5875 5877 5879 5881 5883 5885 5885 5887 5889 5891 5894 5896 5896 5897 5897 5898 5899 5901 5902 5904 5905 5906 5906 5906 5906 5907 5908 5910 5912 5914 5915 5917 5919 5920 5921 5923 5925 5928 5930 5932 5934 5936 5938 5939 5940 5941 5942 5943 5944 5945 5946 5947 5948 5949 5950 5951 5952 5952 5953 5953 5954 5954 5955 5956 5956 5956 5955 5955 5955 5956 5956 5956 5956 5957 5957 5957 5957 5958 5958 5958 5958 5958 5959 5958 5958 5959 5959 5959
5851 5852 5856 5860 5863 5866 5867 5868 5870 5871 5873 5876 5878 5880 5882 5882 5883 5886 5889 5892 5893 5893 5893 5894 5895 5896 5898 5899 5901 5903 5904 5905 5906 5906 5906 5908 5909 5911 5913 5914 5916 5918 5920 5921 5923 5925 5927 5929 5931 5933 5935 5937 5938 5940 5941 5942 5944 5945 5946 5947 5948 5949 5950 5951 5952 5952 5952 5953 5954 5954 5955 5956 5956 5957 5957 5956 5956 5956 5956 5956 5956 5957 5957 5958 5958 5958 5959 5959 5959 5959 5959 5959 5959 5960 5960 5960 5960
5847 5849 5853 5857 5861 5863 5865 5866 5867 5868 5870 5873 5875 5876 5878 5879 5881 5884 5888 5890 5891 5890 5891 5893 5894 5895 5896 5898 5900 5902 5903 5904 5904 5905 5905 5906 5908 5909 5911 5913 5915 5917 5919 5921 5922 5924 5925 5927 5930 5932 5934 5936 5937 5939 5941 5942 5944 5945 5946 5947 5949 5950 5950 5951 5952 5952 5952 5953 5954 5954 5955 5956 5957 5957 5957 5957 5956 5956 5956 5957 5957 5957 5958 5959 5959 5959 5960 5960 5960 5960 5960 5960 5960 5960 5960 5961 5960
5843 5846 5850 5855 5858 5860 5862 5863 5864 5865 5866 5869 5871 5871 5874 5877 5879 5882 5885 5887 5889 5890 5891 5893 5893 5894 5895 5898 5900 5901 5902 5903 5904 5904 5904 5905 5906 5908 5910 5913 5915 5917 5918 5920 5921 5922 5924 5926 5928 5930 5932 5934 5936 5938 5940 5942 5943 5945 5946 5947 5947 5948 5949 5950 5950 5951 5951 5952 5953 5954 5955 5956 5957 5957 5957 5957 5957 5957 5957 5957 5957 5958 5959 5959 5960 5960 5961 5961 5961 5961 5960 5960 5960 5961 5961 5961 5961
5839 5843 5848 5851 5853 5855 5858 5860 5859 5861 5862 5865 5866 5867 5870 5874 5876 5879 5881 5884 5887 5888 5890 5891 5892 5893 5895 5897 5899 5901 5902 5902 5903 5904 5905 5905 5906 5907 5909 5911 5913 5915 5917 5918 5920 5922 5923 5925 5927 5929 5931 5933 5935 5937 5940 5941 5943 5944 5945 5946 5946 5947 5948 5948 5949 5950 5951 5953 5954 5954 5955 5956 5957 5957 5957 5957 5957 5958 5958 5958 5958 5958 5959 5960 5960 5961 5961 5961 5961 5961 5961 5961 5961 5961 5961 5961 5961
5837 5842 5844 5845 5848 5851 5854 5856 5854 5856 5859 5861 5862 5863 5866 5870 5873 5875 5877 5880 5883 5884 5887 5890 5891 5893 5895 5896 5898 5900 5901 5901 5902 5903 5904 5905 5905 5906 5908 5910 5911 5913 5915 5917 5919 5921 5923 5924 5926 5928 5930 5932 5934 5937 5939 5941 5942 5943 5944 5945 5946 5947 5948 5949 5950 5951 5952 5953 5954 5955 5955 5956 5957 5957 5957 5957 5958 5958 5958 5958 5958 5959 5960 5960 5961 5961 5962 5962 5962 5962 5962 5962 5961 5962 5962 5962 5962
5835 5838 5838 5840 5844 5846 5849 5850 5850 5853 5855 5855 5857 5859 5861 5866 5870 5872 5873 5876 5878 5881 5886 5888 5891 5893 5894 5895 5897 5898 5900 5900 5901 5902 5903 5903 5904 5905 5907 5908 5910 5912 5914 5916 5918 5919 5921 5923 5925 5926 5929 5931 5933 5936 5938 5940 5941 5942 5943 5944 5946 5947 5948 5949 5950 5952 5952 5953 5954 5955 5955 5956 5956 5957 5957 5957 5958 5958 5959 5959 5959 5959 5960 5961 5961 5962 5962 5963 5963 5963 5963 5962 5962 5962 5962 5962 5962
5830 5831 5831 5835 5838 5840 5842 5843 5846 5848 5846 5847 5854 5856 5856 5861 5867 5868 5869 5871 5875 5880 5885 5888 5890 5892 5893 5894 5895 5897 5898 5899 5900 5900 5901 5902 5903 5904 5905 5907 5909 5911 5913 5914 5916 5918 5920 5922 5924 5926 5928 5930 5932 5935 5937 5938 5940 5941 5942 5944 5945 5947 5948 5949 5950 5951 5952 5953 5954 5955 5955 5956 5956 5956 5957 5957 5958 5958 5959 5959 5959 5959 5960 5961 5961 5962 5962 5963 5963 5963 5963 5963 5963 5963 5963 5963 5963
5823 5823 5825 5829 5830 5833 5836 5838 5841 5841 5835 5840 5851 5852 5852 5856 5861 5863 5866 5871 5876 5880 5884 5886 5889 5891 5892 5893 5894 5895 5897 5898 5899 5899 5900 5901 5902 5903 5904 5906 5908 5910 5912 5913 5915 5917 5919 5921 5923 5925 5927 5929 5931 5933 5935 5937 5939 5940 5942 5943 5944 5946 5947 5949 5950 5950 5951 5952 5953 5954 5955 5956 5956 5956 5957 5957 5958 5958 5959 5959 5959 5960 5960 5961 5962 5962 5963 5963 5963 5964 5964 5964 5963 5963 5963 5963 5963
5816 5815 5818 5822 5824 5827 5829 5831 5834 5831 5828 5836 5848 5850 5848 5850 5857 5861 5865 5871 5875 5877 5880 5883 5887 5890 5891 5892 5893 5894 5897 5897 5898 5898 5899 5900 5902 5903 5904 5905 5907 5908 5910 5912 5914 5916 5918 5920 5922 5924 5926 5928 5930 5932 5933 5935 5937 5939 5940 5942 5944 5945 5946 5948 5949 5950 5951 5951 5952 5953 5954 5955 5956 5957 5957 5957 5958 5958 5959 5959 5960 5960 5961 5962 5962 5963 5963 5963 5964 5964 5964 5964 5964 5964 5964 5964 5964
5808 5808 5811 5815 5817 5819 5821 5824 5825 5825 5826 5834 5844 5846 5842 5845 5855 5859 5861 5868 5872 5874 5878 5881 5884 5887 5889 5890 5891 5893 5894 5896 5897 5898 5898 5899 5901 5903 5904 5905 5906 5907 5909 5911 5913 5915 5917 5918 5920 5922 5925 5927 5929 5930 5932 5934 5936 5938 5939 5941 5942 5944 5945 5947 5948 5949 5950 5951 5952 5953 5953 5954 5955 5956 5957 5958 5959 5959 5959 5960 5960 5961 5961 5962 5963 5963 5963 5964 5964 5964 5965 5965 5965 5965 5964 5964 5964
5802 5803 5806 5809 5811 5813 5816 5819 5821 5825 5827 5831 5840 5842 5835 5840 5852 5856 5859 5866 5870 5872 5875 5877 5880 5884 5887 5888 5889 5890 5891 5893 5895 5896 5897 5898 5900 5901 5902 5904 5904 5906 5907 5909 5911 5913 5915 5917 5919 5921 5923 5925 5927 5929 5931 5933 5934 5936 5938 5939 5941 5942 5944 5945 5947 5948 5949 5950 5951 5952 5953 5953 5955 5956 5958 5959 5960 5960 5961 5961 5961 5962 5962 5963 5963 5964 5964 5964 5964 5965 5965 5965 5965 5965 5965 5965 5965
5799 5801 5804 5805 5807 5811 5815 5817 5818 5823 5825 5827 5835 5836 5829 5836 5848 5854 5859 5863 5866 5868 5871 5874 5877 5880 5883 5885 5886 5887 5889 5890 5892 5894 5895 5897 5898 5899 5900 5902 5903 5905 5906 5907 5909 5911 5914 5916 5917 5919 5921 5923 5925 5927 5929 5931 5933 5934 5936 5938 5939 5941 5942 5943 5945 5947 5948 5949 5950 5951 5952 5953 5954 5956 5957 5959 5960 5961 5962 5962 5963 5963 5964 5964 5964 5965 5965 5965 5965 5965 5966 5966 5966 5966 5966 5966 5966
5795 5797 5798 5799 5804 5811 5815 5816 5817 5823 5824 5822 5827 5829 5826 5834 5846 5853 5857 5859 5862 5865 5867 5871 5874 5877 5880 5881 5883 5886 5887 5889 5891 5892 5894 5895 5896 5897 5898 5900 5902 5903 5905 5906 5908 5910 5912 5914 5916 5918 5920 5921 5923 5925 5927 5929 5931 5932 5934 5936 5938 5939 5940 5942 5944 5946 5947 5948 5949 5950 5951 5952 5954 5956 5957 5958 5959 5960 5962 5962 5963 5964 5965 5965 5965 5966 5966 5966 5966 5966 5966 5966 5966 5966 5967 5967 5966
5788 5790 5791 5796 5804 5810 5811 5812 5814 5818 5819 5815 5819 5827 5828 5832 5844 5852 5855 5857 5859 5862 5864 5868 5871 5874 5876 5879 5882 5884 5886 5888 5890 5892 5894 5895 5895 5896 5897 5898 5900 5902 5903 5905 5906 5908 5909 5911 5913 5916 5918 5920 5922 5923 5925 5927 5929 5931 5933 5935 5936 5938 5939 5940 5942 5944 5946 5947 5948 5949 5950 5952 5954 5955 5957 5958 5959 5960 5961 5962 5963 5964 5965 5965 5966 5966 5967 5967 5966 5966 5966 5967 5967 5967 5967 5967 5967
5784 5787 5790 5796 5801 5802 5803 5805 5807 5811 5812 5808 5813 5825 5828 5830 5841 5849 5853 5855 5858 5860 5862 5865 5868 5871 5873 5877 5880 5882 5884 5887 5888 5890 5892 5893 5894 5895 5896 5897 5899 5900 5902 5903 5904 5905 5907 5909 5911 5913 5916 5918 5920 5921 5923 5924 5926 5929 5931 5933 5935 5936 5937 5939 5940 5942 5944 5946 5947 5949 5950 5951 5953 5954 5956 5957 5958 5960 5961 5962 5963 5963 5964 5965 5965 5966 5967 5967 5967 5967 5967 5967 5967 5967 5967 5967 5967
5781 5784 5788 5791 5793 5794 5796 5799 5800 5804 5805 5802 5808 5821 5825 5827 5837 5846 5850 5853 5856 5859 5861 5862 5865 5868 5871 5875 5877 5880 5882 5884 5886 5888 5889 5891 5893 5894 5895 5896 5897 5899 5900 5901 5902 5904 5905 5907 5909 5911 5913 5915 5917 5918 5920 5922 5924 5926 5929 5931 5933 5934 5935 5937 5939 5941 5943 5945 5946 5948 5949 5950 5951 5953 5954 5956 5957 5959 5960 5961 5962 5963 5963 5964 5965 5965 5966 5967 5967 5967 5967 5967 5967 5967 5967 5967 5967
5775 5778 5781 5783 5785 5789 5793 5796 5798 5801 5802 5801 5807 5816 5820 5824 5835 5843 5848 5851 5853 5856 5858 5860 5863 5866 5870 5873 5876 5878 5880 5882 5884 5886 5887 5889 5891 5893 5894 5895 5896 5897 5898 5899 5901 5902 5904 5905 5907 5909 5911 5912 5914 5916 5918 5920 5922 5924 5926 5929 5931 5932 5934 5935 5937 5939 5941 5943 5945 5946 5948 5949 5950 5952 5953 5955 5956 5958 5959 5960 5961 5962 5963 5963 5964 5964 5965 5966 5966 5967 5967 5967 5967 5967 5967 5967 5967
5768 5770 5772 5775 5779 5783 5788 5791 5795 5798 5799 5800 5804 5810 5816 5824 5833 5840 5845 5848 5851 5853 5856 5858 5861 5864 5868 5871 5874 5876 5878 5880 5882 5884 5886 5888 5889 5891 5892 5893 5894 5894 5896 5897 5899 5901 5902 5903 5905 5907 5909 5911 5913 5915 5917 5918 5920 5922 5924 5926 5929 5930 5932 5933 5935 5937 5939 5941 5943 5945 5946 5948 5949 5951 5952 5953 5955 5956 5957 5959 5960 5961 5962 5962 5963 5964 5964 5964 5965 5965 5966 5966 5967 5967 5967 5967 5966
5761 5763 5765 5770 5775 5778 5781 5785 5789 5792 5793 5795 5799 5805 5813 5822 5829 5835 5841 5845 5848 5851 5854 5856 5859 5862 5865 5869 5871 5873 5876 5878 5880 5882 5884 5885 5887 5889 5890 5891 5891 5892 5893 5895 5897 5899 5900 5902 5903 5905 5907 5909 5911 5913 5915 5917 5919 5920 5922 5924 5926 5928 5929 5931 5933 5936 5937 5939 5941 5943 5945 5946 5948 5949 5951 5952 5953 5954 5956 5957 5958 5959 5960 5961 5962 5962 5963 5963 5963 5964 5965 5965 5966 5966 5966 5966 5966